Location: Alvis C Story Elementary School
(33.0968°N, 96.6364°W)
Time: 03:49:51
(UTC+00:00)

Cosmos 2228 Rocket - Pass Details

Date: 29 June 2022
Orbit: 618 x 651 km, 82.5° (Epoch: 14 August)

Event Time Altitude Azimuth Distance (km) Brightness Sun altitude
Rises 10:38:26 0° 354° (N) 2,908 6.9 -8.3°
Reaches altitude 10° 10:40:39 10° 355° (N) 2,002 6.1 -8.0°
Maximum altitude 10:45:06 85° 82° (E) 636 3.2 -7.2°
Drops below altitude 10° 10:49:34 10° 173° (S) 2,008 5.4 -6.4°
Sets 10:51:48 0° 174° (S) 2,918 6.2 -6.0°
